Flag for U.S.A. Weather past 2 weeks in Peoria, Illinois, U.S.A.

41 °F

Low clouds.

Feels Like: 35 °F
Forecast: 37 / 44 °F
Wind: 9 mph from East

Location: Greater Peoria Regional Airport

Current Time: Nov 30, 2015 at 2:55:45 PM

Latest Report: Nov 30, 2015 at 1:54 PM

Visibility: 5 mi

Pressure: 29.98 "Hg

Humidity: 82%

Dew point: 36 °F

Location of PeoriaLocation

Historic Weather in Peoria — Graph


Peoria temperature yesterday

Maximum temperature yesterday: 41 °F (at 12:54 PM)
Minimum temperature yesterday: 34 °F (at 6:54 AM)
Average temperature yesterday: 38 °F

Past Weeks' High & Low Weather Summary

High68 °F (Nov 15, 2:54 PM)92% (Nov 21, 5:54 AM)30.43 "Hg (Nov 21, 5:54 AM)
Low11 °F (Nov 22, 5:54 AM)23% (Nov 19, 2:54 PM)29.41 "Hg (Nov 18, 3:54 AM)
Average44 °F70%30.12 "Hg
* Reported Nov 15 12:54 PM — Nov 30 12:54 PM, Peoria, Weather by CustomWeather, © 2015

Note: Actual official high and low records may vary slightly from our data, if they occured in-between our weather recording intervals... More about our weather records


Peoria weather history for previous 24 hours

Time TempWeatherWind HumidityBarometerVisibility
12:54 PM
Mon, Nov 30
40 °FFog.9 mph86%30.01 "Hg4 mi
12:01 PM40 °FFog.10 mph86%30.02 "Hg2 mi
11:54 AM40 °FFog.12 mph86%30.05 "Hg2 mi
10:54 AM39 °FFog.13 mph86%30.09 "Hg4 mi
9:54 AM39 °FLight rain. Mostly cloudy.6 mph82%30.12 "Hg4 mi
8:54 AM38 °FLight rain. Mostly cloudy.14 mph83%30.12 "Hg8 mi
7:54 AM38 °FMostly cloudy.12 mph79%30.13 "Hg9 mi
6:54 AM37 °FLight rain. Mostly cloudy.10 mph82%30.13 "Hg8 mi
5:54 AM37 °FRain. Overcast.10 mph82%30.14 "Hg5 mi
4:54 AM38 °FLight rain. Mostly cloudy.9 mph76%30.14 "Hg10 mi
3:54 AM38 °FOvercast.9 mph73%30.16 "Hg10 mi
2:54 AM38 °FLight rain. Overcast.12 mph70%30.17 "Hg10 mi
1:54 AM38 °FOvercast.12 mph68%30.19 "Hg10 mi
12:54 AM39 °FOvercast.10 mph62%30.21 "Hg10 mi
11:54 PM
Sun, Nov 29
40 °FOvercast.15 mph58%30.21 "Hg10 mi
10:54 PM40 °FPassing clouds.15 mph63%30.22 "Hg10 mi
9:54 PM40 °FPassing clouds.12 mph68%30.25 "Hg10 mi
8:54 PM41 °FOvercast.12 mph70%30.27 "Hg10 mi
7:54 PM41 °FOvercast.9 mph74%30.26 "Hg10 mi
6:54 PM40 °FOvercast.8 mph77%30.27 "Hg10 mi
5:54 PM40 °FOvercast.7 mph77%30.28 "Hg10 mi
4:54 PM40 °FOvercast.10 mph73%30.29 "Hg10 mi
3:54 PM40 °FCloudy.10 mph70%30.30 "Hg10 mi
2:54 PM41 °FPartly sunny.10 mph65%30.27 "Hg10 mi
Weather by CustomWeather, © 2015

See weather overviewHow to use our weather pages